User: anonymous   Login
Location: Unspecified
(0.0000°N, 0.0000°E)
Time: 19:03:18
(UTC+00:00)
Language:

PRISM - Orbit

View from above orbital plane
View from above orbital plane
View from above satellite
View from above satellite

Ground track
Ground track

The orbit data is extracted from the following two-line orbital elements,

1 33493U 09002B   19343.54771052  .00000903  00000-0  84300-4 0  9995
2 33493  98.1290 271.1384 0014357 332.4888  27.5571 14.96831739591154
Epoch (UTC): 09 December 2019 13:08:42
Eccentricity: 0.0014357
inclination: 98.1290°
perigee height: 567 km
apogee height: 586 km
right ascension of ascending node: 271.1384°
argument of perigee: 332.4888°
revolutions per day: 14.96831739
mean anomaly at epoch: 27.5571°
orbit number at epoch: 59115

The dashed part of the orbit path shows where the satellite is in the earth's shadow,  

DLR